Bloomington, IN

4:25 PM EST on November 20, 2017 (GMT -0500)
Monroe County

Weather History for KBMG - December, 2012

Change the Weather History Date:

Saturday, December 1, 2012

  Actual Average Record
Temperature  
Mean Temperature 55 °F 37 °F  
Max Temperature 66 °F 45 °F 66 °F (2012)
Min Temperature 44 °F 28 °F 14 °F (2002)
Degree Days  
Heating Degree Days 10 28  
Month to date heating degree days 10 28  
Since 1 July heating degree days 1226 1084  
Cooling Degree Days 0 0  
Month to date cooling degree days 0 0  
Year to date cooling degree days 1309 927  
Growing Degree Days 5 (Base 50)    
Moisture  
Dew Point 42 °F    
Average Humidity 65    
Maximum Humidity 82    
Minimum Humidity 48    
Precipitation  
Precipitation 0.00 in 0.10 in 0.69 in (2006)
Month to date precipitation 0.00 0.10  
Year to date precipitation 28.83 44.11  
Sea Level Pressure  
Sea Level Pressure 30.16 in    
Wind  
Wind Speed 7 mph (SSE)    
Max Wind Speed 18 mph    
Max Gust Speed 25 mph    
Visibility 9 miles    
Events      
T = Trace of Precipitation, MM = Missing Value Source: NWS Daily Summary

Daily Weather History Graph

Daily Weather History Graph

Search for Another Location

Airport or City:

Trip Planner

Search our weather history database for the weather conditions in past years. The results will help you decide how hot, cold, wet, or windy it might be!

Date:

Astronomy

Dec. 01, 2012 Rise Set
Actual Time 7:47 AM EST 5:24 PM EST
Civil Twilight 7:17 AM EST 5:53 PM EST
Nautical Twilight 6:44 AM EST 6:26 PM EST
Astronomical Twilight 6:12 AM EST 6:59 PM EST
Moon 8:13 PM EST (12/1) 10:00 AM EST (12/1)
Length of Visible Light 10h 36m
Length of Day
9h 36m
Waning Gibbous, 92% of the Moon is Illuminated
Dec 1
Waning Gibbous
Dec 6
Last Quarter
Dec 13
New
Dec 20
First Quarter
Dec 28
Full

Hourly Weather History & Observations

Time (EST) Temp. Dew Point Humidity Pressure Visibility Wind Dir Wind Speed Gust Speed Precip Events Conditions
12:53 AM 48.0 °F 39.0 °F 71% 30.16 in 9.0 mi Calm Calm - N/A   Overcast
1:10 AM 46.4 °F 39.2 °F 76% 30.16 in 9.0 mi Calm Calm - N/A   Overcast
1:53 AM 46.9 °F 39.9 °F 77% 30.17 in 9.0 mi SE 3.5 mph - N/A   Overcast
2:53 AM 46.9 °F 39.0 °F 74% 30.18 in 8.0 mi SSE 3.5 mph - N/A   Overcast
3:53 AM 46.9 °F 39.9 °F 77% 30.18 in 8.0 mi Calm Calm - N/A   Overcast
4:53 AM 48.0 °F 39.9 °F 74% 30.18 in 9.0 mi SSE 4.6 mph - N/A   Overcast
5:03 AM 48.2 °F 39.2 °F 71% 30.18 in 9.0 mi SSE 4.6 mph - N/A   Overcast
5:43 AM 50.0 °F 41.0 °F 71% 30.19 in 9.0 mi South 3.5 mph - N/A   Overcast
5:51 AM 50.0 °F 41.0 °F 71% 30.19 in 10.0 mi SSE 3.5 mph - N/A   Overcast
5:53 AM 50.0 °F 41.0 °F 71% 30.19 in 10.0 mi South 3.5 mph - N/A   Overcast
6:09 AM 48.2 °F 41.0 °F 76% 30.19 in 9.0 mi SE 3.5 mph - N/A   Overcast
6:53 AM 48.9 °F 41.0 °F 74% 30.19 in 9.0 mi SSE 4.6 mph - N/A   Overcast
7:20 AM 48.2 °F 41.0 °F 76% 30.19 in 9.0 mi SE 3.5 mph - N/A   Overcast
7:53 AM 48.9 °F 42.1 °F 77% 30.21 in 9.0 mi ESE 3.5 mph - N/A   Overcast
8:53 AM 51.1 °F 43.0 °F 74% 30.21 in 8.0 mi SE 3.5 mph - N/A   Overcast
9:19 AM 51.8 °F 42.8 °F 71% 30.21 in 8.0 mi SE 4.6 mph - N/A   Overcast
9:53 AM 52.0 °F 43.0 °F 71% 30.21 in 9.0 mi SE 5.8 mph - N/A   Mostly Cloudy
10:53 AM 57.9 °F 44.1 °F 60% 30.20 in 10.0 mi SSW 10.4 mph - N/A   Scattered Clouds
11:03 AM 57.2 °F 42.8 °F 59% 30.20 in 10.0 mi SSW 9.2 mph - N/A   Mostly Cloudy
11:53 AM 62.1 °F 44.1 °F 52% 30.17 in 10.0 mi South 11.5 mph - N/A   Mostly Cloudy
12:00 PM 62.6 °F 44.6 °F 52% 30.17 in 10.0 mi South 10.4 mph - N/A   Scattered Clouds
12:53 PM 62.1 °F 44.1 °F 52% 30.15 in 10.0 mi SSW 11.5 mph 20.7 mph N/A   Mostly Cloudy
1:53 PM 64.0 °F 45.0 °F 50% 30.12 in 10.0 mi SSW 11.5 mph 20.7 mph N/A   Scattered Clouds
2:53 PM 64.0 °F 46.0 °F 52% 30.11 in 10.0 mi SSW 12.7 mph - N/A   Mostly Cloudy
3:53 PM 63.0 °F 45.0 °F 52% 30.11 in 10.0 mi SSW 13.8 mph - N/A   Overcast
4:53 PM 60.1 °F 45.0 °F 57% 30.11 in 10.0 mi South 6.9 mph - N/A   Mostly Cloudy
5:53 PM 60.1 °F 44.1 °F 55% 30.11 in 10.0 mi South 6.9 mph - N/A   Overcast
6:53 PM 57.9 °F 43.0 °F 58% 30.10 in 10.0 mi SSE 8.1 mph - N/A   Clear
7:53 PM 57.0 °F 43.0 °F 59% 30.09 in 10.0 mi SSE 10.4 mph - N/A   Overcast
8:53 PM 57.9 °F 44.1 °F 60% 30.08 in 10.0 mi South 9.2 mph - N/A   Mostly Cloudy
9:53 PM 57.9 °F 43.0 °F 58% 30.08 in 10.0 mi South 6.9 mph - N/A   Clear
10:53 PM 60.1 °F 43.0 °F 53% 30.08 in 10.0 mi South 12.7 mph - N/A   Overcast
11:53 PM 61.0 °F 45.0 °F 56% 30.08 in 10.0 mi SSW 13.8 mph - N/A   Overcast